Time,TemperatureF,DewpointF,PressureIn,WindDirection,WindDirectionDegrees,WindSpeedMPH,WindSpeedGustMPH,Humidity,HourlyPrecipIn,Conditions,Clouds,dailyrainin,SolarRadiationWatts/m^2,SoftwareType,DateUTC
2013-03-28 11:02:00,12.0,0.0,-100.00,NNW,329,3.0,8.0,57,-99.99,,,0.00,223.000000,,2013-03-28 19:02:00,
2013-03-28 11:12:00,12.0,0.0,-100.00,NNW,329,3.0,8.0,57,-99.99,,,0.00,223.000000,,2013-03-28 19:12:00,
2013-03-28 11:22:00,12.0,0.0,-100.00,NNW,329,3.0,8.0,57,-99.99,,,0.00,223.000000,,2013-03-28 19:22:00,
2013-03-28 11:32:00,12.0,0.0,-100.00,NNW,329,3.0,8.0,57,-99.99,,,0.00,223.000000,,2013-03-28 19:32:00,
2013-03-28 11:52:00,13.0,3.0,-100.00,WNW,286,6.0,8.0,63,0.00,,,0.00,476.000000,,2013-03-28 19:52:00,
2013-03-28 12:02:00,13.0,3.0,-100.00,WNW,286,6.0,8.0,63,0.00,,,0.00,476.000000,,2013-03-28 20:02:00,
2013-03-28 12:12:00,13.0,3.0,-100.00,WNW,286,6.0,8.0,63,0.00,,,0.00,476.000000,,2013-03-28 20:12:00,
2013-03-28 12:22:00,13.0,3.0,-100.00,WNW,286,6.0,8.0,63,0.00,,,0.00,476.000000,,2013-03-28 20:22:00,
2013-03-28 12:32:00,13.0,3.0,-100.00,WNW,286,6.0,8.0,63,0.00,,,0.00,476.000000,,2013-03-28 20:32:00,
2013-03-28 12:53:00,15.0,7.0,-100.00,WNW,301,2.0,6.0,71,0.00,,,-99.99,605.000000,,2013-03-28 20:53:00,
2013-03-28 13:02:00,15.0,7.0,-100.00,WNW,301,2.0,6.0,71,0.00,,,-99.99,605.000000,,2013-03-28 21:02:00,
2013-03-28 13:12:00,15.0,7.0,-100.00,WNW,301,2.0,6.0,71,0.00,,,-99.99,605.000000,,2013-03-28 21:12:00,
2013-03-28 13:22:00,15.0,7.0,-100.00,WNW,301,2.0,6.0,71,0.00,,,-99.99,605.000000,,2013-03-28 21:22:00,
2013-03-28 13:32:00,15.0,7.0,-100.00,WNW,301,2.0,6.0,71,0.00,,,-99.99,605.000000,,2013-03-28 21:32:00,
2013-03-28 13:53:00,20.0,11.0,-100.00,NW,307,2.0,5.0,66,0.00,,,0.00,641.000000,,2013-03-28 21:53:00,
2013-03-28 14:02:00,20.0,11.0,-100.00,NW,307,2.0,5.0,66,0.00,,,0.00,641.000000,,2013-03-28 22:02:00,
2013-03-28 14:12:00,20.0,11.0,-100.00,NW,307,2.0,5.0,66,0.00,,,0.00,641.000000,,2013-03-28 22:12:00,
2013-03-28 14:22:00,20.0,11.0,-100.00,NW,307,2.0,5.0,66,0.00,,,0.00,641.000000,,2013-03-28 22:22:00,
2013-03-28 14:32:00,20.0,11.0,-100.00,NW,307,2.0,5.0,66,0.00,,,0.00,641.000000,,2013-03-28 22:32:00,
2013-03-28 14:52:00,21.0,10.0,-100.00,NNE,27,2.0,6.0,62,0.00,,,0.00,472.000000,,2013-03-28 22:52:00,
2013-03-28 15:02:00,21.0,10.0,-100.00,NNE,27,2.0,6.0,62,0.00,,,0.00,472.000000,,2013-03-28 23:02:00,
2013-03-28 15:12:00,21.0,10.0,-100.00,NNE,27,2.0,6.0,62,0.00,,,0.00,472.000000,,2013-03-28 23:12:00,
2013-03-28 15:21:00,21.0,10.0,-100.00,NNE,27,2.0,6.0,62,0.00,,,0.00,472.000000,,2013-03-28 23:21:00,
2013-03-28 15:32:00,21.0,10.0,-100.00,NNE,27,2.0,6.0,62,0.00,,,0.00,472.000000,,2013-03-28 23:32:00,
2013-03-28 15:52:00,18.0,11.0,-100.00,WNW,289,4.0,7.0,72,0.00,,,0.00,540.000000,,2013-03-28 23:52:00,
2013-03-28 16:02:00,18.0,11.0,-100.00,WNW,289,4.0,7.0,72,0.00,,,0.00,540.000000,,2013-03-29 00:02:00,
2013-03-28 16:12:00,18.0,11.0,-100.00,WNW,289,4.0,7.0,72,0.00,,,0.00,540.000000,,2013-03-29 00:12:00,
2013-03-28 16:22:00,18.0,11.0,-100.00,WNW,289,4.0,7.0,72,0.00,,,0.00,540.000000,,2013-03-29 00:22:00,
2013-03-28 16:32:00,18.0,11.0,-100.00,WNW,289,4.0,7.0,72,0.00,,,0.00,540.000000,,2013-03-29 00:32:00,
2013-03-28 16:52:00,20.0,11.0,-100.00,WNW,295,2.0,5.0,68,0.00,,,-99.99,490.000000,,2013-03-29 00:52:00,
2013-03-28 17:02:00,20.0,11.0,-100.00,WNW,295,2.0,5.0,68,0.00,,,-99.99,490.000000,,2013-03-29 01:02:00,
2013-03-28 17:12:00,20.0,11.0,-100.00,WNW,295,2.0,5.0,68,0.00,,,-99.99,490.000000,,2013-03-29 01:12:00,
2013-03-28 17:22:00,20.0,11.0,-100.00,WNW,295,2.0,5.0,68,0.00,,,-99.99,490.000000,,2013-03-29 01:22:00,
2013-03-28 17:31:00,20.0,11.0,-100.00,WNW,295,2.0,5.0,68,0.00,,,-99.99,490.000000,,2013-03-29 01:31:00,
2013-03-28 17:52:00,21.0,12.0,-100.00,SW,234,2.0,3.0,68,0.00,,,-99.99,296.000000,,2013-03-29 01:52:00,
2013-03-28 18:02:00,21.0,12.0,-100.00,SW,234,2.0,3.0,68,0.00,,,-99.99,296.000000,,2013-03-29 02:02:00,
2013-03-28 18:12:00,21.0,12.0,-100.00,SW,234,2.0,3.0,68,0.00,,,-99.99,296.000000,,2013-03-29 02:12:00,
2013-03-28 18:22:00,21.0,12.0,-100.00,SW,234,2.0,3.0,68,0.00,,,-99.99,296.000000,,2013-03-29 02:22:00,
2013-03-28 18:32:00,21.0,12.0,-100.00,SW,234,2.0,3.0,68,0.00,,,-99.99,296.000000,,2013-03-29 02:32:00,
2013-03-28 18:53:00,19.0,10.0,-100.00,WNW,290,2.0,5.0,68,0.00,,,-99.99,64.000000,,2013-03-29 02:53:00,
2013-03-28 19:02:00,19.0,10.0,-100.00,WNW,290,2.0,5.0,68,0.00,,,-99.99,64.000000,,2013-03-29 03:02:00,
2013-03-28 19:12:00,19.0,10.0,-100.00,WNW,290,2.0,5.0,68,0.00,,,-99.99,64.000000,,2013-03-29 03:12:00,
2013-03-28 19:21:00,19.0,10.0,-100.00,WNW,290,2.0,5.0,68,0.00,,,-99.99,64.000000,,2013-03-29 03:21:00,
2013-03-28 19:32:00,19.0,10.0,-100.00,WNW,290,2.0,5.0,68,0.00,,,-99.99,64.000000,,2013-03-29 03:32:00,
2013-03-28 19:53:00,18.0,10.0,-100.00,NW,308,2.0,4.0,71,0.00,,,-99.99,49.000000,,2013-03-29 03:53:00,
2013-03-28 20:02:00,18.0,10.0,-100.00,NW,308,2.0,4.0,71,0.00,,,-99.99,49.000000,,2013-03-29 04:02:00,
2013-03-28 20:12:00,18.0,10.0,-100.00,NW,308,2.0,4.0,71,0.00,,,-99.99,49.000000,,2013-03-29 04:12:00,
2013-03-28 20:22:00,18.0,10.0,-100.00,NW,308,2.0,4.0,71,0.00,,,-99.99,49.000000,,2013-03-29 04:22:00,
2013-03-28 20:32:00,18.0,10.0,-100.00,NW,308,2.0,4.0,71,0.00,,,-99.99,49.000000,,2013-03-29 04:32:00,
2013-03-28 20:52:00,18.0,11.0,-100.00,NNW,327,2.0,6.0,72,0.00,,,-99.99,3.000000,,2013-03-29 04:52:00,
2013-03-28 21:02:00,18.0,11.0,-100.00,NNW,327,2.0,6.0,72,0.00,,,-99.99,3.000000,,2013-03-29 05:02:00,
2013-03-28 21:12:00,18.0,11.0,-100.00,NNW,327,2.0,6.0,72,0.00,,,-99.99,3.000000,,2013-03-29 05:12:00,
2013-03-28 21:22:00,18.0,11.0,-100.00,NNW,327,2.0,6.0,72,0.00,,,-99.99,3.000000,,2013-03-29 05:22:00,
2013-03-28 21:32:00,18.0,11.0,-100.00,NNW,327,2.0,6.0,72,0.00,,,-99.99,3.000000,,2013-03-29 05:32:00,
2013-03-28 21:52:00,17.0,11.0,-100.00,NNW,341,3.0,6.0,77,0.00,,,-99.99,0.000000,,2013-03-29 05:52:00,
2013-03-28 22:02:00,17.0,11.0,-100.00,NNW,341,3.0,6.0,77,0.00,,,-99.99,0.000000,,2013-03-29 06:02:00,
2013-03-28 22:12:00,17.0,11.0,-100.00,NNW,341,3.0,6.0,77,0.00,,,-99.99,0.000000,,2013-03-29 06:12:00,
2013-03-28 22:22:00,17.0,11.0,-100.00,NNW,341,3.0,6.0,77,0.00,,,-99.99,0.000000,,2013-03-29 06:22:00,
2013-03-28 22:32:00,17.0,11.0,-100.00,NNW,341,3.0,6.0,77,0.00,,,-99.99,0.000000,,2013-03-29 06:32:00,
2013-03-28 22:52:00,17.0,12.0,-100.00,WNW,293,3.0,6.0,81,0.00,,,-99.99,0.000000,,2013-03-29 06:52:00,
2013-03-28 23:02:00,17.0,12.0,-100.00,WNW,293,3.0,6.0,81,0.00,,,-99.99,0.000000,,2013-03-29 07:02:00,
2013-03-28 23:12:00,17.0,12.0,-100.00,WNW,293,3.0,6.0,81,0.00,,,-99.99,0.000000,,2013-03-29 07:12:00,
2013-03-28 23:22:00,17.0,12.0,-100.00,WNW,293,3.0,6.0,81,0.00,,,-99.99,0.000000,,2013-03-29 07:22:00,
2013-03-28 23:32:00,17.0,12.0,-100.00,WNW,293,3.0,6.0,81,0.00,,,-99.99,0.000000,,2013-03-29 07:32:00,
2013-03-28 23:52:00,16.0,13.0,-100.00,NW,319,3.0,4.0,88,0.00,,,-99.99,0.000000,,2013-03-29 07:52:00,